[[{"header":{"parameterUnit":"m.s-1","parameterCategory":1,"la1":30.2991,"la2":30.254,"lo1":-89.0895,"lo2":-89.0444,"dy":0.0017,"dx":0.0017,"nx":28,"ny":28,"refTime":"2023-08-11T03:00:00:Z","depth":0,"parameterNumber":2,"parameterNumberName":"U-component_of_WINDS"},"data":[0,0,0,0,0,0,0,0,0,0,0,0,0,0,0,0,0,0,0,0,0,0,0,0,0,0,0,0,0,0,0,0,0,0,0,0,0,0,0,0,0,0,0,0,0,0,0,0,0,0,0,0,0,0,0,0,0,0,0.4065,0.4067,0,0.4249,0.4251,0.4253,0.432,0.4319,0.4318,0.4318,0.451,0.4515,0.4521,0,0,0,0,0,0,0,0,0,0,0,0,0,0.3776,0.3781,0.4065,0.4067,0.4069,0.4248,0.4251,0.4253,0.432,0.4319,0.4318,0.4317,0.4508,0.4514,0.4521,0,0,0,0,0,0,0,0,0,0,0,0,0,0.3925,0.3783,0.4064,0.4124,0.4131,0.4248,0.4251,0.4254,0.432,0.4319,0.4318,0.4317,0.4505,0.4514,0.4522,0.4594,0,0,0.4548,0.4552,0,0,0,0,0,0,0,0,0.3916,0.3935,0.4113,0.412,0.4128,0.426,0.4219,0.4368,0.432,0.4248,0.4318,0.4317,0.4428,0.4442,0.4479,0.4603,0.4611,0.4549,0.4554,0.4558,0.456,0,0,0,0,0,0,0,0.3906,0.3928,0.4137,0.4115,0.4125,0.4143,0.4163,0.4248,0.4341,0.4254,0.426,0.428,0.4432,0.4471,0.4484,0.4614,0.4549,0.4556,0.4562,0.4565,0.481,0.4811,0,0,0,0,0,0,0.3885,0.3919,0.4132,0.4143,0.4018,0.4149,0.4171,0.4219,0.434,0.4358,0.4281,0.4283,0.4457,0.4474,0.4491,0.4585,0.4558,0.4566,0.4571,0.4808,0.481,0.4811,0,0,0,0,0,0,0.3878,0.3903,0.4124,0.4032,0.4062,0.4155,0.4208,0.4223,0.4262,0.436,0.4378,0.4303,0.4457,0.4479,0.4568,0.4593,0.457,0.4578,0.4807,0.4809,0.4811,0.4773,0,0,0,0,0,0,0.387,0.3901,0.3927,0.4032,0.4066,0.4197,0.4209,0.4227,0.4276,0.428,0.4386,0.4403,0.4458,0.4555,0.4577,0.4604,0.4584,0.4805,0.4808,0.481,0.4772,0.4773,0.4774,0,0,0,0,0,0.3859,0.391,0.3928,0.3954,0.4102,0.4198,0.4218,0.4278,0.4278,0.4307,0.437,0.4399,0.4586,0.4564,0.4589,0.4619,0.4804,0.4807,0.481,0.4772,0.4773,0.4774,0,0,0,0,0,0,0.3806,0.3924,0.3947,0.4032,0.4104,0.4209,0.4247,0.4277,0.4352,0.4353,0.4427,0.445,0.4534,0.4586,0.4558,0.4697,0.4697,0.4705,0.466,0.4662,0.4663,0.4649,0.4591,0,0,0,0,0,0.3803,0.387,0.3971,0.4037,0.4072,0.4153,0.4197,0.4238,0.4316,0.4347,0.4418,0.4494,0.457,0.4619,0.4694,0.478,0.4806,0.4813,0.4814,0.4815,0.4821,0.4873,0.4878,0.4822,0.4822,0.4821,0,0,0.38,0.3873,0.3911,0.4028,0.4089,0.4158,0.4178,0.425,0.4303,0.4359,0.4448,0.4502,0.4592,0.468,0.4723,0.4726,0.4843,0.4818,0.4818,0.4825,0.4877,0.4882,0.4887,0.4824,0.4823,0.4823,0,0,0.383,0.3891,0.3953,0.4014,0.4106,0.416,0.4175,0.4276,0.4314,0.4404,0.4448,0.4513,0.4642,0.4705,0.4754,0.481,0.484,0.4832,0.4837,0.4887,0.4892,0.4896,0.4918,0.4925,0.4838,0.4838,0.4838,0,0.3814,0.3919,0.3982,0.4052,0.4103,0.4157,0.4222,0.4278,0.439,0.4425,0.4427,0.4591,0.4656,0.4761,0.4775,0.4812,0.4833,0.4821,0.4886,0.4891,0.4896,0.4918,0.4925,0.4837,0.4837,0.4837,0.4837,0,0.3896,0.3969,0.4008,0.4115,0.4171,0.4238,0.4313,0.4362,0.4399,0.4453,0.4546,0.4625,0.4718,0.4746,0.4782,0.4858,0.4857,0.4871,0.4873,0.4899,0.4921,0.4929,0.4835,0.4835,0.4836,0.4836,0,0,0.3896,0.4038,0.4052,0.4102,0.4208,0.4266,0.4337,0.4428,0.447,0.4546,0.4608,0.4717,0.4732,0.4787,0.4831,0.4875,0.4917,0.4884,0.4888,0.4889,0.5007,0.4997,0.5005,0.4937,0.4939,0.4941,0.5,0,0.3941,0.4068,0.4128,0.423,0.43,0.4352,0.4415,0.4488,0.4541,0.4609,0.4668,0.4745,0.4757,0.4791,0.4837,0.4902,0.4942,0.4898,0.4999,0.5001,0.4975,0.5016,0.5005,0.5057,0.5009,0.501,0.5011,0,0.4009,0.4085,0.4194,0.4295,0.4326,0.438,0.447,0.4533,0.4618,0.4654,0.4717,0.476,0.4839,0.4835,0.4946,0.4915,0.496,0.4998,0.5002,0.5015,0.5008,0.5032,0.5075,0.5084,0.5025,0.5024,0.5023,0,0.4,0.413,0.4213,0.4254,0.4372,0.441,0.4461,0.4545,0.4597,0.4676,0.471,0.4797,0.4845,0.4912,0.4978,0.4969,0.5084,0.5085,0.5118,0.5116,0.514,0.5138,0.5193,0.5167,0.5166,0.5166,0.5166,0,0.4045,0.411,0.421,0.4261,0.4337,0.4406,0.4479,0.4535,0.4609,0.4673,0.4724,0.4784,0.4867,0.4937,0.499,0.5075,0.5096,0.5129,0.5142,0.5125,0.5121,0.5156,0.5155,0.5168,0.5168,0.5167,0.5167,0,0.4047,0.4117,0.4211,0.4316,0.4344,0.4395,0.4486,0.4539,0.4595,0.4676,0.4699,0.4788,0.4874,0.4946,0.5059,0.5095,0.5184,0.5199,0.5155,0.5162,0.5192,0.5189,0.5273,0.5288,0.5249,0.5249,0.5249,0,0.4071,0.4123,0.4234,0.428,0.4331,0.4405,0.4458,0.4529,0.4582,0.4684,0.4725,0.4815,0.489,0.5025,0.5101,0.5188,0.5207,0.5231,0.5221,0.5202,0.521,0.5206,0.5213,0.5231,0.5231,0.5231,0.5231,0,0.4107,0.414,0.4214,0.4301,0.4363,0.4435,0.4509,0.4544,0.4629,0.4687,0.4776,0.4834,0.495,0.5039,0.5135,0.519,0.5226,0.5234,0.5247,0.523,0.5203,0.522,0.5158,0.5232,0.5232,0.5232,0.5232,0.5232,0.4123,0.4172,0.4258,0.434,0.4403,0.4471,0.4526,0.459,0.4665,0.4764,0.4802,0.4893,0.4979,0.5112,0.5167,0.5241,0.5246,0.5263,0.5268,0.5272,0.527,0.519,0.5258,0.5258,0.5258,0.5258,0.5258,0,0.4163,0.4222,0.4296,0.4398,0.4463,0.449,0.4574,0.4627,0.4706,0.4783,0.4856,0.4959,0.5046,0.5129,0.5221,0.5264,0.5283,0.5286,0.5285,0.5297,0.5259,0.524,0.5269,0.5269,0.5269,0.5269,0.5269,0.5269,0.4191,0.4277,0.432,0.4438,0.4497,0.4586,0.4632,0.4696,0.4758,0.487,0.4943,0.4996,0.5077,0.5175,0.5257,0.528,0.5312,0.5311,0.5338,0.5301,0.5299,0.5298,0.528,0.5317,0.5317,0.537,0.5371,0.5371]},{"header":{"parameterUnit":"m.s-1","parameterCategory":1,"la1":30.2991,"la2":30.254,"lo1":-89.0895,"lo2":-89.0444,"dy":0.0017,"dx":0.0017,"nx":28,"ny":28,"refTime":"2023-08-11T03:00:00:Z","depth":0,"parameterNumber":3,"parameterNumberName":"V-component_of_WINDS"},"data":[0,0,0,0,0,0,0,0,0,0,0,0,0,0,0,0,0,0,0,0,0,0,0,0,0,0,0,0,0,0,0,0,0,0,0,0,0,0,0,0,0,0,0,0,0,0,0,0,0,0,0,0,0,0,0,0,0,0,5.2728,5.273,0,5.2866,5.2867,5.2869,5.287,5.2868,5.2866,5.2865,5.2993,5.2998,5.3003,0,0,0,0,0,0,0,0,0,0,0,0,0,5.2455,5.246,5.2728,5.273,5.2731,5.2866,5.2867,5.2869,5.287,5.2868,5.2866,5.2864,5.2992,5.2998,5.3004,0,0,0,0,0,0,0,0,0,0,0,0,0,5.258,5.2461,5.2728,5.2748,5.2752,5.2865,5.2867,5.287,5.2871,5.2868,5.2865,5.2863,5.299,5.2997,5.3005,5.3103,0,0,5.3028,5.3031,0,0,0,0,0,0,0,0,5.2573,5.259,5.2744,5.2747,5.2751,5.2848,5.2818,5.2947,5.2871,5.2825,5.2865,5.2862,5.2946,5.2957,5.2988,5.3109,5.3114,5.3028,5.3033,5.3036,5.3038,0,0,0,0,0,0,0,5.2565,5.2584,5.2782,5.2746,5.275,5.2747,5.2762,5.2843,5.2898,5.2829,5.2829,5.2846,5.2948,5.2981,5.2991,5.3116,5.3028,5.3035,5.3039,5.3042,5.3325,5.3328,0,0,0,0,0,0,5.2553,5.2577,5.2778,5.2786,5.2654,5.2754,5.2771,5.2819,5.2897,5.2907,5.2848,5.2846,5.297,5.2983,5.2996,5.3118,5.3036,5.3043,5.3048,5.3322,5.3326,5.3329,0,0,0,0,0,0,5.2548,5.2571,5.2772,5.2682,5.2708,5.2762,5.2816,5.2823,5.2857,5.2912,5.2921,5.2873,5.2968,5.2985,5.3078,5.3122,5.3047,5.3053,5.3319,5.3323,5.3328,5.3361,0,0,0,0,0,0,5.254,5.2569,5.261,5.2683,5.2712,5.2855,5.2819,5.2828,5.2872,5.287,5.2938,5.2946,5.2967,5.3066,5.3085,5.3131,5.3059,5.3315,5.3321,5.3326,5.3356,5.3366,5.3374,0,0,0,0,0,5.253,5.261,5.2612,5.2636,5.2765,5.2857,5.2874,5.29,5.2875,5.2915,5.295,5.2944,5.3114,5.3076,5.3097,5.3146,5.3312,5.3319,5.3326,5.3352,5.3364,5.3374,0,0,0,0,0,0,5.2536,5.262,5.2623,5.273,5.2787,5.2858,5.2908,5.2911,5.2973,5.2968,5.2994,5.3009,5.3101,5.3132,5.3088,5.3245,5.321,5.3221,5.3222,5.3234,5.3243,5.3234,5.3066,0,0,0,0,0,5.255,5.2623,5.2691,5.2779,5.2808,5.2853,5.2894,5.291,5.2968,5.2991,5.3033,5.3087,5.3153,5.3195,5.3258,5.336,5.3375,5.3404,5.3413,5.3421,5.343,5.3487,5.3501,5.3351,5.3351,5.3351,0,0,5.2579,5.2635,5.2678,5.2782,5.2828,5.2899,5.2873,5.2949,5.3001,5.3001,5.3093,5.3125,5.3186,5.3285,5.333,5.3313,5.3475,5.3429,5.3435,5.344,5.3496,5.351,5.3522,5.3356,5.3355,5.3354,0,0,5.267,5.2719,5.2799,5.2847,5.2919,5.2949,5.2968,5.3039,5.3062,5.3155,5.3157,5.3217,5.333,5.3374,5.3411,5.352,5.3517,5.354,5.3588,5.3643,5.3655,5.3665,5.3705,5.3719,5.3549,5.3549,5.3549,0,5.2696,5.2808,5.2838,5.2917,5.2962,5.297,5.3049,5.3092,5.3179,5.3209,5.319,5.3333,5.3374,5.3484,5.3511,5.354,5.3561,5.3532,5.3651,5.3662,5.3673,5.3711,5.3725,5.3551,5.3551,5.3551,5.355,0,5.2837,5.2914,5.2969,5.3059,5.311,5.3187,5.3227,5.3274,5.3286,5.3317,5.3411,5.3461,5.3536,5.3562,5.3572,5.3673,5.3661,5.3647,5.3611,5.3689,5.3725,5.374,5.3555,5.3554,5.3553,5.3552,0,0,5.2933,5.3042,5.3062,5.3103,5.3184,5.3242,5.3319,5.3397,5.3437,5.3496,5.3561,5.3657,5.3645,5.3687,5.3702,5.375,5.3835,5.373,5.3731,5.3748,5.395,5.3962,5.3978,5.3833,5.3836,5.3838,5.3945,0,5.3033,5.3177,5.3208,5.333,5.3401,5.3411,5.3478,5.3533,5.3564,5.3626,5.3658,5.3727,5.3705,5.3731,5.3779,5.3814,5.3876,5.3807,5.3891,5.3894,5.3877,5.3997,5.4009,5.4108,5.396,5.3962,5.3964,0,5.3169,5.3238,5.3369,5.3443,5.3473,5.3534,5.3608,5.3668,5.373,5.3749,5.3798,5.3808,5.3885,5.3847,5.3954,5.3906,5.3942,5.3965,5.3969,5.3978,5.3934,5.401,5.414,5.4155,5.3986,5.3984,5.3983,0,5.3228,5.3352,5.3448,5.3483,5.357,5.3613,5.365,5.371,5.3756,5.3819,5.3848,5.3917,5.3955,5.4008,5.4035,5.4004,5.414,5.4103,5.4157,5.4156,5.4185,5.4183,5.4324,5.4207,5.4207,5.4206,5.4206,0,5.3337,5.3416,5.3476,5.3535,5.3624,5.3657,5.3743,5.3779,5.3833,5.3896,5.3906,5.3964,5.3997,5.4059,5.4081,5.4166,5.4183,5.4199,5.4204,5.4199,5.4197,5.4223,5.4217,5.421,5.421,5.4209,5.4208,0,5.3418,5.3461,5.3566,5.3642,5.3663,5.3726,5.3789,5.3844,5.3876,5.3956,5.3977,5.4025,5.41,5.4133,5.4222,5.4236,5.4335,5.4334,5.4316,5.4318,5.437,5.4365,5.4532,5.4556,5.4423,5.4424,5.4425,0,5.3485,5.3548,5.3632,5.3678,5.3719,5.3791,5.3839,5.3873,5.3922,5.3998,5.4044,5.412,5.4182,5.43,5.4341,5.4409,5.4411,5.4465,5.4421,5.4415,5.4413,5.4409,5.4416,5.4473,5.4474,5.4475,5.4476,0,5.36,5.3619,5.369,5.377,5.3828,5.389,5.3951,5.3986,5.403,5.4083,5.4162,5.4211,5.4305,5.438,5.4452,5.4486,5.4488,5.449,5.4506,5.4502,5.449,5.4498,5.4339,5.4486,5.4485,5.4484,5.4483,5.4483,5.3677,5.3734,5.3804,5.3883,5.3933,5.3991,5.4048,5.4089,5.4157,5.424,5.4254,5.4338,5.4398,5.4496,5.4533,5.4597,5.4583,5.4606,5.4613,5.4618,5.4622,5.4479,5.461,5.4609,5.4609,5.4609,5.4609,0,5.3794,5.384,5.3913,5.4001,5.4062,5.4064,5.4131,5.4182,5.4257,5.4315,5.4378,5.4468,5.4541,5.4589,5.4662,5.4704,5.4706,5.4722,5.4719,5.4727,5.4629,5.4609,5.4719,5.4719,5.4718,5.4718,5.4718,5.4718,5.3862,5.3959,5.3987,5.4109,5.4153,5.424,5.4278,5.4331,5.4378,5.448,5.4543,5.4575,5.4629,5.4706,5.4772,5.4784,5.481,5.4827,5.4838,5.4745,5.4734,5.4723,5.4704,5.4832,5.4832,5.4931,5.4931,5.4932]}]]